Content
SEND FEEDBACK

Daily
Averages
Monthly
Summary
United States of America

SMITH PLACE, COLORADO


Home > North America > United States > Colorado
Elevation: 8090 feet     Latitude: 38 16N     Longitude: 107 06W

WEATHER
 
SELECT A DAY
Number of Records: 454,678;   Date Range: 1/1/95 - 10/20/14
 
SHARE

PRINT THIS DATA

[ ← Previous Day ]
WEATHER ALMANAC - JANUARY 31, 2013
[ Next Day → ]
[ °C ]   °F
Weather ElementAverageHighLow
Temperature22.2 °F33.8 °F (2:15 pm)8.6 °F (10:35 pm)
Dewpoint13.4 °F23 °F (5:15 am)-2.2 °F (9:55 pm)
Humidity70.4 %100 % (9:35 pm)48 % (2:15 pm)
Barometer30.25 in30.32 in (9:35 pm)30.12 in (1:15 am)
Wind Speed5.8 mph16.1 mph (10:35 am)
Wind Gust21.9 mph (4:15 am)
Weather ElementAverage
Visibility9.8 mi
Wind DirectionSSE (163.7 °)

Weather ElementTotal
Precipitation---
Heating Degree Days43.8 (Base 65)
Averaged from 60 records on January 31, 2013
WEATHER CONDITIONS BREAKOUT
WIND DIRECTION BREAKOUT
WEATHER BY HOUR - JANUARY 31, 2013
[ °C ]   °F
Local TimeTemperatureDewpointHumidityBarometerVisibilityWind DirectionWind SpeedGust SpeedPrecipitationEventsConditions
12:35 AM19.4 °F15.8 °F86 %30.13 in10.0 miNorth (350°)5.8 mphOvercast
12:55 AM19.4 °F15.8 °F86 %30.13 in10.0 miNorth (10°)6.9 mphOvercast
1:15 AM19.4 °F15.8 °F86 %30.12 in10.0 miNorth (350°)4.6 mphOvercast
1:55 AM19.4 °F17.6 °F93 %30.13 in10.0 miNNE (20°)3.5 mphOvercast
2:15 AM19.4 °F15.8 °F86 %30.12 in9.0 miNorth (350°)6.9 mphMostly Cloudy
2:35 AM19.4 °F15.8 °F86 %30.13 in8.0 miNorth (360°)6.9 mphOvercast
2:55 AM19.4 °F15.8 °F86 %30.12 in8.0 miNorth (350°)3.5 mphOvercast
3:15 AM19.4 °F15.8 °F86 %30.12 in5.0 miWSW (240°)3.5 mphOvercast
3:55 AM19.4 °F10.4 °F68 %30.13 in10.0 miNorth (360°)5.8 mphOvercast
4:15 AM24.8 °F19.4 °F80 %30.13 in9.0 miWSW (250°)15.0 mph21.9 mphOvercast
4:35 AM24.8 °F19.4 °F80 %30.16 in10.0 miNNE (20°)6.9 mphOvercast
4:55 AM21.2 °F19.4 °F93 %30.17 in10.0 miNorth (350°)4.6 mphOvercast
5:15 AM24.8 °F23.0 °F93 %30.16 in10.0 miWSW (250°)11.5 mphOvercast
5:55 AM21.2 °F17.6 °F86 %30.19 in10.0 miENE (70°)5.8 mphOvercast
6:15 AM21.2 °F17.6 °F86 %30.19 in10.0 miCalmMostly Cloudy
6:35 AM19.4 °F10.4 °F68 %30.19 in10.0 miNW (310°)3.5 mphScattered Clouds
6:55 AM17.6 °F12.2 °F79 %30.19 in10.0 miNorth (360°)6.9 mphClear
7:35 AM15.8 °F10.4 °F79 %30.22 in10.0 miNorth (350°)5.8 mphClear
7:55 AM14.0 °F8.6 °F79 %30.24 in10.0 miNNW (340°)8.1 mphPartly Cloudy
8:15 AM15.8 °F10.4 °F79 %30.25 in10.0 miNNE (20°)5.8 mphMostly Cloudy
8:35 AM17.6 °F14.0 °F86 %30.26 in10.0 miNorth (350°)8.1 mphScattered Clouds
8:55 AM17.6 °F10.4 °F73 %30.27 in10.0 miNNE (20°)5.8 mphMostly Cloudy
9:15 AM17.6 °F10.4 °F73 %30.29 in10.0 miENE (60°)8.1 mphMostly Cloudy
9:35 AM23.0 °F15.8 °F74 %30.29 in10.0 miCalmScattered Clouds
9:55 AM28.4 °F21.2 °F74 %30.30 in10.0 miSW (230°)12.7 mph19.6 mphPartly Cloudy
10:15 AM28.4 °F19.4 °F69 %30.30 in10.0 miWSW (240°)10.4 mph18.4 mphClear
10:35 AM30.2 °F19.4 °F64 %30.31 in10.0 miWSW (250°)16.1 mph20.7 mphClear
10:55 AM30.2 °F17.6 °F60 %30.31 in10.0 miWSW (240°)16.1 mph20.7 mphClear
11:15 AM30.2 °F17.6 °F60 %30.31 in10.0 miWSW (240°)12.7 mph19.6 mphPartly Cloudy
11:35 AM30.2 °F15.8 °F55 %30.31 in10.0 miWSW (240°)10.4 mphMostly Cloudy
12:15 PM30.2 °F17.6 °F60 %30.30 in10.0 miWSW (240°)15.0 mph20.7 mphOvercast
12:35 PM32.0 °F15.8 °F51 %30.29 in10.0 miWSW (240°)12.7 mph19.6 mphOvercast
12:55 PM32.0 °F15.8 °F51 %30.28 in10.0 miSW (230°)11.5 mphPartly Cloudy
1:15 PM30.2 °F15.8 °F55 %30.27 in10.0 miWSW (250°)8.1 mphPartly Cloudy
1:35 PM30.2 °F15.8 °F55 %30.27 in10.0 miWest (260°)6.9 mphMostly Cloudy
2:15 PM33.8 °F15.8 °F48 %30.26 in10.0 miCalmClear
2:35 PM32.0 °F15.8 °F51 %30.26 in10.0 miSouth (170°)4.6 mphClear
2:55 PM32.0 °F15.8 °F51 %30.26 in10.0 miSouth (180°)5.8 mphClear
3:15 PM32.0 °F15.8 °F51 %30.26 in10.0 miSouth (180°)4.6 mphClear
3:35 PM32.0 °F14.0 °F48 %30.25 in10.0 miSSE (160°)3.5 mphClear
3:55 PM30.2 °F14.0 °F51 %30.25 in10.0 miSE (130°)3.5 mphClear
4:15 PM30.2 °F15.8 °F55 %30.25 in10.0 miESE (120°)4.6 mphClear
4:35 PM30.2 °F14.0 °F51 %30.25 in10.0 miEast (90°)4.6 mphClear
5:15 PM28.4 °F12.2 °F51 %30.25 in10.0 miSE (140°)3.5 mphClear
5:35 PM26.6 °F15.8 °F64 %30.25 in10.0 miCalmClear
6:15 PM23.0 °F10.4 °F59 %30.27 in10.0 miNorth (350°)3.5 mphClear
6:35 PM23.0 °F12.2 °F63 %30.28 in10.0 miNorth (10°)4.6 mphClear
6:55 PM19.4 °F12.2 °F74 %30.29 in10.0 miSE (140°)4.6 mphClear
7:15 PM15.8 °F8.6 °F73 %30.29 in10.0 miSSE (160°)5.8 mphClear
7:35 PM15.8 °F6.8 °F68 %30.29 in10.0 miCalmClear
7:55 PM17.6 °F8.6 °F68 %30.31 in10.0 miCalmClear
8:15 PM15.8 °F8.6 °F73 %30.31 in10.0 miNE (50°)4.6 mphPartly Cloudy
8:35 PM15.8 °F10.4 °F79 %30.31 in10.0 miNE (50°)6.9 mphMostly Cloudy
9:15 PM12.2 °F3.2 °F67 %30.31 in10.0 miEast (90°)4.6 mphMostly Cloudy
9:35 PM12.2 °F12.2 °F100 %30.32 in10.0 miCalmOvercast
9:55 PM12.2 °F-2.2 °F53 %30.32 in10.0 miCalmMostly Cloudy
10:15 PM12.2 °F6.8 °F79 %30.32 in10.0 miCalmPartly Cloudy
10:35 PM8.6 °F1.4 °F73 %30.32 in10.0 miCalmClear
11:15 PM10.4 °F6.8 °F85 %30.32 in10.0 miCalmClear
11:35 PM8.6 °F-2.2 °F62 %30.32 in10.0 miCalmClear
Hourly data recorded from KGUC, located miles away from Smith Place, Colorado







STORIES FROM OUR PARTNERS